GFSGL_sfc_temp_057.txt.gz
Temp
79 75 70 68 69 69 64 64 63 61 57 55 52 50 49 50 49 46 46 45 45 45 47 49 54 57 56 56 57 56 55 54 49 53 56 57 56 55 55 54 53 52 52
81 76 70 68 64 63 61 59 57 55 53 52 52 51 50 47 46 47 46 46 44 46 49 52 53 57 54 55 55 54 54 55 52 48 53 54 53 54 54 52 52 53 51
80 64 63 60 57 56 53 52 52 51 51 52 50 48 48 49 48 48 47 45 46 49 52 53 53 53 52 54 55 54 55 56 54 51 50 53 53 53 52 52 50 50 51
67 62 57 55 54 53 52 52 51 52 51 50 50 49 47 45 47 46 46 46 48 50 50 52 53 54 54 55 55 54 55 53 52 50 49 49 50 51 51 47 46 49 48
58 56 53 54 55 55 55 53 52 51 50 51 50 49 48 47 46 45 46 47 47 48 48 53 56 54 49 49 53 53 52 51 51 48 47 47 46 45 44 46 44 46 47
56 55 56 57 59 58 57 56 55 53 53 51 48 46 44 47 42 41 43 46 50 52 53 54 56 52 51 43 44 43 46 48 46 45 46 43 44 44 45 43 42 41 38
59 59 60 60 57 57 58 57 56 53 53 51 47 49 48 49 42 42 40 50 51 51 52 53 53 57 50 55 49 41 41 40 37 44 42 44 42 44 44 42 41 41 40
60 59 59 58 57 57 56 55 53 53 52 51 51 51 51 54 42 41 39 49 50 51 52 52 52 53 53 50 50 50 50 50 48 45 44 45 46 45 45 44 42 41 41
59 59 58 56 54 55 53 53 53 51 52 54 55 54 53 54 41 39 41 47 47 47 49 50 50 50 46 42 44 44 46 46 48 41 41 41 38 37 38 42 37 36 34
58 57 56 57 56 54 53 54 55 55 54 55 53 53 45 51 38 38 40 43 40 42 44 45 41 42 39 38 40 40 39 43 45 45 43 40 38 39 34 39 39 34 34
58 57 55 55 55 55 54 54 54 53 52 49 47 48 49 46 45 38 37 39 38 36 37 39 41 38 37 37 35 37 37 39 40 42 43 41 42 42 41 39 40 37 34
56 55 55 54 54 54 53 52 52 50 48 46 43 44 45 44 39 36 35 34 34 34 35 37 38 37 36 35 35 36 35 34 36 36 36 36 36 37 40 41 41 41 41
54 52 52 52 52 52 51 49 50 48 44 42 41 40 41 41 42 36 34 33 33 34 35 35 34 34 35 35 36 34 33 35 33 32 33 35 39 40 39 38 41 42 41
51 50 50 50 48 49 50 48 46 42 40 40 39 37 37 37 38 35 32 33 33 33 32 34 32 32 33 33 34 37 38 34 33 33 34 35 39 35 35 37 35 36 35
49 49 47 46 47 46 45 43 41 37 34 35 36 34 31 30 31 28 28 30 30 30 30 32 34 34 34 35 36 38 38 37 33 34 34 36 36 35 34 36 34 33 31
46 45 43 42 43 45 45 39 31 31 30 30 29 28 30 28 27 26 28 28 28 30 30 31 29 29 29 30 31 32 35 34 34 33 34 35 35 34 34 34 34 32 31
44 41 39 40 41 40 40 39 39 30 31 30 29 27 28 26 26 26 27 28 29 30 29 29 28 27 27 28 30 29 29 32 35 35 34 34 34 34 32 32 32 32 31
39 32 41 40 39 38 39 37 37 34 31 33 30 29 28 26 25 26 27 28 29 29 29 27 26 26 26 26 26 27 29 30 31 33 34 33 33 33 32 31 32 30 31
39 39 37 36 34 33 34 34 33 32 31 31 32 32 31 26 25 27 28 27 25 25 26 26 25 25 24 24 25 25 26 26 28 28 33 33 32 33 32 32 31 30 30
34 28 32 34 33 33 32 31 31 30 29 29 28 28 28 23 22 25 26 25 24 24 23 23 23 23 22 22 23 23 23 24 25 27 29 32 32 33 32 31 31 30 30
36 31 26 33 32 30 30 29 28 27 26 26 26 26 17 19 21 23 23 23 23 22 21 21 20 21 21 21 21 22 21 21 23 24 26 27 32 31 32 32 31 30 31
31 30 29 28 28 27 26 26 25 25 25 24 24 25 21 21 23 22 22 22 21 21 22 20 19 19 20 19 19 19 19 19 20 21 23 23 25 29 32 31 30 30 31
27 26 27 26 25 20 23 24 23 23 22 22 22 22 22 21 20 20 19 19 19 19 19 18 17 18 19 19 19 19 18 19 19 21 19 20 22 24 30 30 30 30 30
25 25 25 24 23 21 22 21 21 20 19 20 20 20 20 19 19 18 18 18 17 17 17 17 16 16 17 18 18 19 19 19 20 19 19 18 19 22 24 30 30 30 30
24 23 22 21 21 20 19 20 19 19 19 19 18 18 19 18 17 17 17 16 16 15 15 15 15 16 16 15 16 16 18 18 17 17 17 18 19 19 21 29 30 29 30
23 21 20 20 19 19 18 17 17 17 17 17 16 16 16 16 16 15 15 14 14 13 12 15 15 14 15 16 17 18 17 17 16 16 18 18 18 20 22 29 30 29 29

GFSGL_sfc_temp_060.txt.gz
Temp
77 71 69 68 68 63 63 62 61 58 57 56 53 50 50 48 48 46 45 45 44 44 45 44 45 48 48 48 48 48 45 44 39 41 44 46 44 44 47 45 46 43 43
75 71 67 64 63 61 59 58 57 55 54 52 50 49 49 47 46 45 44 45 44 44 45 45 47 52 49 50 47 45 43 43 41 40 43 43 42 44 43 42 48 50 44
67 65 61 58 56 54 52 51 51 50 50 50 49 47 47 46 46 45 46 45 44 45 46 47 48 48 46 47 48 46 44 50 44 43 42 41 41 41 41 42 43 41 46
63 60 55 54 52 51 51 50 50 50 49 48 48 47 47 46 46 46 45 44 45 46 47 47 48 48 48 48 46 44 46 43 43 42 43 41 39 41 39 37 37 38 38
57 54 52 52 52 52 50 50 50 49 49 48 47 46 46 46 46 45 46 44 45 45 47 48 48 47 47 46 49 43 42 43 43 41 40 40 38 35 34 37 36 36 35
54 53 54 54 54 53 51 50 49 49 49 49 46 45 44 46 41 41 43 44 46 46 44 45 46 47 47 44 42 42 44 43 41 40 40 38 38 38 36 34 35 34 29
55 55 57 57 55 54 54 53 51 49 48 46 44 44 45 46 41 41 40 43 43 42 42 43 46 51 45 46 44 42 40 39 36 39 37 38 37 39 39 34 32 32 31
58 57 57 55 55 54 53 51 50 50 48 47 46 46 46 49 41 39 39 41 41 42 42 43 42 41 42 39 38 37 38 40 42 42 35 37 38 39 38 36 35 33 32
56 56 56 55 52 53 51 50 49 49 48 48 49 48 45 39 38 38 40 38 39 37 41 40 39 38 39 39 35 33 34 36 42 41 41 40 40 40 39 36 32 27 23
56 55 55 55 54 51 50 50 50 50 50 50 49 46 43 37 37 36 37 32 31 30 33 36 36 36 36 36 33 32 30 32 33 35 35 37 37 36 36 36 33 31 27
56 56 55 55 53 52 50 49 49 47 46 41 39 40 42 39 34 35 35 30 28 29 30 30 31 35 35 34 34 30 30 33 33 33 33 34 36 34 33 33 33 33 30
55 54 53 53 53 52 48 47 47 43 39 36 35 34 35 35 35 34 34 32 32 28 29 29 30 33 33 33 33 33 34 33 32 33 32 32 32 35 35 35 34 33 34
52 51 50 51 51 50 46 44 42 41 36 33 33 31 32 32 31 33 32 31 32 28 29 30 31 32 32 32 34 35 32 31 31 31 31 32 34 36 35 32 34 33 33
49 48 48 46 46 45 46 44 40 35 32 32 31 30 29 30 28 27 26 26 29 28 27 26 27 29 28 29 30 31 31 32 30 32 32 33 34 32 32 33 31 30 29
48 47 44 43 43 43 38 37 32 30 29 29 29 28 24 22 25 26 26 25 24 26 24 25 26 26 26 26 26 28 28 29 28 31 32 32 32 31 32 33 31 30 28
44 43 37 37 37 41 37 34 32 30 31 30 29 26 26 27 27 27 27 28 28 28 24 23 20 21 21 23 23 23 24 25 26 27 30 32 31 30 30 32 30 28 27
38 39 35 35 36 35 33 32 26 28 31 30 29 28 28 26 27 26 27 28 28 28 19 20 17 19 20 22 22 22 21 23 25 25 26 29 27 28 27 30 30 29 28
36 35 36 35 34 33 32 31 30 29 26 25 29 29 29 27 26 27 27 28 23 24 22 20 17 19 20 20 20 20 21 22 22 23 23 25 28 25 25 28 29 28 27
37 35 34 31 29 29 30 30 29 28 27 27 28 26 25 26 26 27 29 20 16 18 21 20 18 19 18 18 18 19 19 19 19 19 21 23 23 29 30 28 30 29 29
30 30 32 31 29 30 29 28 28 28 27 26 24 24 23 18 14 16 17 14 14 16 17 18 18 18 17 17 17 17 17 17 18 18 19 21 21 21 28 24 28 29 28
28 25 25 30 29 28 27 26 26 25 24 23 22 17 14 16 15 18 17 15 15 15 13 16 15 15 16 15 16 15 15 15 16 17 17 18 18 18 21 24 29 30 28
27 26 27 26 26 25 24 25 24 23 23 22 21 21 18 16 18 17 16 13 11 13 14 14 14 14 14 14 13 12 13 13 14 16 16 16 17 17 18 21 25 28 28
24 24 25 24 24 18 20 22 21 21 20 19 19 19 18 16 15 14 13 10 12 11 12 13 12 13 13 12 14 15 13 13 14 14 14 15 15 15 15 17 19 28 27
23 23 23 22 21 19 19 20 19 19 18 17 17 16 16 15 12 10 10 10 9 8 9 12 11 10 12 13 14 14 15 14 15 15 15 13 12 14 15 17 18 22 27
22 21 21 20 20 19 19 19 18 17 17 16 16 16 15 14 14 11 9 9 8 9 10 8 10 12 11 11 11 12 14 16 15 15 14 14 13 13 14 16 17 19 27
22 21 19 19 18 18 17 16 15 16 15 14 14 12 13 12 12 9 10 8 10 7 7 9 9 9 10 12 14 14 14 14 14 15 15 15 14 13 14 16 18 19 26

GFSGL_sfc_temp_063.txt.gz
Temp
70 70 68 65 63 60 61 61 59 57 57 55 53 51 50 49 48 46 45 45 45 45 45 45 45 46 46 46 44 44 45 44 41 40 40 42 41 42 44 41 43 44 43
70 68 64 61 60 59 59 58 57 55 54 52 51 50 49 47 46 46 45 45 44 44 44 44 45 49 47 47 46 46 45 45 44 41 39 38 40 41 41 41 45 49 45
62 61 59 57 55 54 52 53 52 52 50 50 49 48 46 46 46 45 45 44 45 45 45 45 46 46 45 45 45 45 46 47 41 40 41 38 39 42 43 42 42 40 44
58 57 54 53 51 50 51 50 50 49 48 48 47 47 46 46 46 46 45 44 44 45 45 46 46 43 41 42 44 40 42 38 38 38 37 35 36 41 38 37 35 34 36
54 52 50 50 51 50 49 48 48 48 47 47 46 46 45 45 46 44 45 44 44 44 45 46 44 43 44 43 44 41 40 40 37 37 37 38 35 31 32 36 33 35 35
52 50 51 50 49 49 48 48 48 47 47 46 45 44 44 45 41 42 43 44 45 44 40 41 41 43 42 40 38 39 37 33 31 30 34 35 36 33 32 32 34 33 32
52 52 52 52 50 49 49 49 48 46 45 42 41 41 41 43 41 41 40 41 40 38 37 37 40 43 38 37 37 37 36 37 33 31 31 32 33 34 36 34 31 35 32
54 54 53 52 51 50 50 46 44 43 41 41 41 41 42 44 39 39 37 37 35 36 36 35 34 33 34 35 33 31 32 33 34 36 33 34 35 37 35 35 35 35 35
53 52 52 51 48 47 46 47 47 46 43 42 43 41 37 36 38 38 36 33 33 31 34 33 33 31 35 36 31 28 28 30 36 37 37 37 37 37 37 35 34 32 30
51 51 50 50 49 49 48 48 46 44 44 44 41 37 36 34 37 37 33 28 27 27 29 31 33 32 34 34 29 28 26 28 30 30 31 33 34 34 35 34 35 32 30
51 51 50 50 50 50 45 43 42 41 39 35 35 35 33 33 33 35 33 27 26 27 27 27 27 32 32 33 33 29 29 32 32 32 32 32 34 34 35 33 35 34 30
51 50 49 49 49 47 42 41 41 38 34 32 31 30 29 29 33 33 32 31 30 26 26 26 26 31 32 32 31 32 32 30 30 30 30 31 30 33 33 35 34 34 35
48 47 46 46 46 44 41 38 37 35 31 30 31 29 27 27 25 30 30 29 29 25 26 28 29 30 30 28 31 30 28 26 25 25 26 27 32 33 35 34 34 34 32
45 44 42 41 40 39 40 38 35 30 28 30 29 27 25 24 23 23 24 22 26 26 25 25 25 26 24 24 25 26 25 24 23 24 24 26 31 32 33 34 32 30 28
44 42 41 39 36 33 32 32 29 27 29 28 25 26 21 18 23 24 25 24 19 25 21 20 21 21 22 23 23 23 23 23 21 22 23 24 26 30 32 32 31 30 27
40 39 34 34 33 33 31 29 31 30 32 31 30 26 26 27 27 27 28 28 29 29 20 15 10 8 12 19 18 18 19 19 21 21 20 22 23 24 29 31 31 29 28
35 36 32 32 31 31 29 27 24 29 31 30 30 30 29 27 27 27 27 28 28 26 15 14 7 6 10 18 18 17 16 18 20 19 18 20 21 24 23 28 29 29 27
34 33 33 32 32 31 29 29 27 25 23 24 29 28 29 27 26 27 28 28 19 21 19 16 11 11 15 16 16 16 16 16 17 17 16 17 19 20 20 21 26 27 27
32 30 28 27 28 28 28 27 28 27 26 25 25 26 26 26 25 25 26 17 13 15 17 17 12 13 12 14 7 10 8 12 13 14 14 16 17 18 17 19 21 28 27
30 29 27 27 27 26 26 26 26 26 25 24 23 21 20 18 12 10 10 7 9 13 12 14 15 14 8 9 4 5 11 10 12 12 12 14 15 16 16 16 18 19 26
25 26 26 26 25 25 24 24 24 23 22 22 19 17 17 16 13 12 16 11 11 10 6 9 8 2 3 4 12 10 8 8 11 10 12 12 13 13 16 15 16 17 21
25 25 25 23 23 22 21 22 22 21 21 20 19 18 17 12 14 16 14 8 5 6 6 4 2 4 5 10 8 6 8 9 9 11 9 10 12 14 13 13 13 16 17
23 22 22 22 21 19 19 20 19 18 17 17 17 17 16 12 12 12 9 3 5 4 2 2 -2 5 6 3 5 11 10 9 10 10 10 10 12 11 12 11 13 15 16
21 20 21 20 18 18 16 16 16 17 17 14 13 13 12 12 8 6 4 2 1 -4 -6 -1 1 4 7 8 7 9 11 11 12 12 12 10 10 12 12 12 13 13 15
19 19 18 18 17 16 15 15 14 13 12 11 10 10 11 7 8 3 -1 -3 -3 -5 -2 -2 -2 3 3 4 6 7 10 12 12 13 13 12 10 11 11 12 12 13 15
19 18 17 16 15 13 11 9 9 8 8 8 7 5 4 5 3 -5 -3 -4 0 -3 -4 -4 1 1 3 7 9 12 11 10 10 12 12 12 11 12 13 12 12 13 15

GFSGL_sfc_temp_066.txt.gz
Temp
65 65 65 64 62 60 59 59 58 58 59 58 56 54 52 51 50 49 47 46 46 45 46 46 46 46 45 45 46 45 42 42 41 45 42 40 39 40 43 41 41 40 42
64 63 61 59 60 60 60 59 58 58 56 55 54 52 51 49 48 47 45 46 45 45 45 45 45 47 45 45 44 44 44 42 43 41 44 37 38 40 41 41 45 46 43
63 62 60 60 60 59 58 58 58 55 53 51 51 50 48 47 46 46 46 46 45 45 45 45 45 45 44 44 43 40 41 46 42 37 39 38 36 37 37 39 41 38 44
61 60 59 61 61 61 55 53 52 52 50 49 49 48 47 46 46 46 45 45 45 45 45 45 46 45 40 39 39 37 38 34 35 34 35 35 33 35 35 34 37 34 38
58 57 54 53 53 53 51 51 50 49 49 48 47 46 46 46 46 45 45 44 44 44 45 46 45 43 41 39 37 32 31 30 30 29 29 31 32 31 31 33 32 34 37
53 51 51 51 51 50 49 48 48 47 47 46 45 45 44 45 40 41 43 44 44 44 41 40 39 38 38 38 37 37 34 29 27 26 27 28 30 30 32 32 34 33 31
52 51 51 50 49 48 48 48 47 45 45 44 44 44 43 43 41 41 40 43 40 37 34 34 37 38 34 33 33 33 33 34 31 27 26 28 28 29 31 31 32 32 32
51 51 51 49 49 49 48 46 45 45 43 43 42 41 41 43 39 38 37 35 33 33 32 31 31 30 32 31 29 28 29 29 30 32 30 30 30 31 31 32 31 31 32
51 50 51 50 48 47 46 45 44 43 41 40 40 38 36 38 38 37 35 31 31 30 31 31 31 29 33 34 29 27 27 29 34 36 36 35 35 35 35 33 30 29 27
50 51 51 49 47 46 45 43 43 43 42 41 38 38 36 35 36 36 33 28 27 27 29 30 32 31 32 32 28 26 26 27 28 30 32 34 35 35 34 34 32 28 29
50 50 48 48 47 46 46 43 41 39 38 34 32 32 32 33 33 34 33 28 27 27 27 26 26 31 32 32 32 27 27 28 28 26 27 28 29 32 34 34 35 31 29
49 48 47 47 48 48 42 39 39 36 33 31 29 27 28 29 33 33 32 31 29 26 26 26 26 31 31 31 28 30 30 26 23 22 25 25 24 26 30 33 34 34 34
47 45 43 43 42 42 39 37 35 34 32 30 29 26 25 26 27 31 30 30 29 26 27 27 29 29 29 27 29 29 25 22 20 19 20 22 24 26 29 31 34 35 35
42 41 41 39 37 37 37 36 33 30 31 30 29 26 25 24 23 24 25 24 27 27 25 25 24 26 23 24 25 25 24 22 20 19 19 21 22 23 24 26 29 32 31
41 39 37 35 34 32 30 30 30 29 30 29 28 28 23 22 25 26 26 26 24 26 21 21 22 22 21 22 22 22 21 21 19 19 19 18 19 21 22 25 25 30 28
37 35 31 30 31 31 29 28 32 31 32 31 30 27 27 28 29 28 28 28 29 29 23 19 16 14 16 18 17 17 18 16 17 17 17 17 16 17 20 22 23 25 26
34 33 32 31 30 29 29 29 25 28 31 31 30 29 28 26 27 28 28 28 28 26 19 17 12 10 13 17 17 16 14 15 16 15 14 14 15 16 18 18 19 20 25
33 33 32 31 31 29 28 27 27 25 24 25 28 28 28 28 27 27 28 27 21 22 20 17 14 14 16 16 15 14 14 12 11 12 12 11 12 14 14 16 17 16 18
30 29 28 27 27 27 28 27 27 26 26 25 25 26 26 26 24 24 24 19 18 17 18 17 15 15 14 14 9 6 1 1 5 4 5 6 11 12 11 15 15 16 16
28 27 28 27 27 26 26 25 25 25 24 23 23 21 20 19 16 14 15 13 14 16 15 15 15 14 10 9 3 -1 -1 -1 3 7 3 6 4 8 10 12 14 13 14
27 27 26 26 25 24 24 24 23 22 22 21 20 18 19 17 16 15 17 14 14 14 12 13 11 6 5 3 7 -1 1 -2 5 7 8 8 6 7 10 13 13 13 14
25 25 24 23 23 22 21 22 21 20 20 19 18 18 18 16 16 17 16 14 11 12 11 9 6 5 5 5 3 -3 3 5 1 6 7 7 8 9 10 11 11 11 13
22 22 22 21 21 20 19 20 19 18 17 17 17 17 16 14 14 14 12 9 11 8 7 6 -2 2 2 -3 -3 3 6 5 7 9 7 7 8 9 8 9 10 11 11
21 20 20 19 18 17 16 15 16 17 16 16 14 14 13 12 9 8 8 7 7 1 -2 -4 -3 -0 2 -2 -2 1 7 9 9 10 10 9 9 9 9 9 10 11 11
18 18 17 17 16 15 15 14 13 12 12 11 10 9 11 9 9 4 3 1 -1 -6 -3 -5 -7 -3 -2 -2 0 2 3 8 9 8 8 9 8 8 8 9 10 11 12
17 16 15 15 14 13 11 10 9 9 7 7 6 4 4 4 2 -5 -6 -6 -7 -7 -6 -7 -4 -2 -1 1 4 8 5 5 6 7 7 7 7 7 9 9 11 11 12

GFSGL_sfc_temp_069.txt.gz
Temp
61 60 59 59 59 59 60 59 57 58 58 59 58 57 56 54 53 52 49 48 47 46 46 46 46 47 46 45 45 45 44 43 40 41 39 40 38 39 42 41 41 39 41
62 62 60 60 60 60 60 58 59 59 59 58 58 56 53 52 51 50 47 47 46 45 45 46 45 47 44 45 44 44 43 44 41 36 37 36 36 38 37 37 43 46 41
62 62 61 61 61 61 60 60 60 59 58 56 56 53 51 51 49 47 48 46 46 46 45 45 45 44 44 44 44 42 41 42 36 33 32 35 34 35 35 36 37 37 41
61 61 61 60 60 61 60 59 59 56 54 52 53 52 50 48 48 47 47 46 45 45 45 45 45 45 43 42 40 35 34 31 30 29 28 29 30 32 31 30 33 34 34
61 61 61 60 61 60 58 56 53 52 51 51 49 48 46 46 46 46 46 44 44 44 44 45 43 42 40 40 35 31 30 28 27 26 26 26 26 26 26 29 30 32 33
60 60 59 55 55 55 53 51 51 50 48 47 47 46 45 45 40 41 44 44 44 44 41 39 39 39 37 37 37 36 33 27 25 23 23 23 23 25 26 26 27 26 25
58 54 54 53 52 50 50 49 48 47 46 46 45 44 43 43 40 41 41 44 41 39 38 37 37 36 33 31 33 33 32 33 29 25 23 23 24 26 27 26 26 27 27
53 52 51 51 50 49 48 47 45 45 44 44 43 44 43 43 39 39 37 38 35 34 34 32 30 30 31 31 29 28 28 29 29 30 26 26 27 31 32 31 30 30 32
51 50 50 50 48 47 46 45 45 45 44 43 44 43 41 39 37 36 36 35 32 30 31 30 30 29 33 33 30 27 27 29 33 34 34 35 35 35 35 32 29 28 26
51 50 50 49 48 46 46 44 44 44 43 41 38 38 37 36 36 36 34 29 27 28 29 30 32 30 32 32 28 26 25 26 25 26 26 28 30 30 32 31 31 27 27
52 51 49 49 48 47 45 44 43 42 38 34 32 34 34 34 35 35 34 29 28 27 27 26 27 30 32 32 30 28 26 26 25 24 24 25 26 26 27 29 30 29 28
50 48 48 47 47 46 42 41 40 37 32 31 29 30 30 32 33 34 33 31 31 27 27 27 27 30 31 31 28 29 28 25 21 19 20 21 21 23 24 25 27 28 31
47 46 46 46 44 43 40 37 35 33 33 31 30 28 26 27 27 32 32 30 29 27 28 28 29 29 30 27 28 27 24 21 18 17 18 19 21 21 24 24 26 27 30
44 43 42 40 38 39 38 37 32 31 31 30 28 25 24 24 24 25 26 27 28 27 26 27 26 26 25 24 24 24 22 21 18 17 17 19 20 19 19 22 21 23 24
41 40 38 36 34 31 32 33 31 32 33 30 28 27 23 22 25 26 25 25 23 26 24 23 23 22 21 22 21 21 20 20 18 17 16 16 17 17 17 19 20 20 20
35 36 34 33 32 32 31 29 32 32 32 32 31 28 27 29 29 29 28 28 28 28 23 19 16 15 16 18 17 17 17 17 17 16 15 15 14 13 15 16 19 18 18
33 33 32 32 31 30 30 28 25 29 31 31 31 30 29 28 28 27 27 28 28 25 19 17 11 11 14 18 17 16 14 15 16 14 12 12 12 12 13 13 14 16 16
34 32 32 31 30 29 28 28 27 26 23 24 28 28 28 27 28 28 28 28 21 22 20 17 15 15 16 15 15 14 14 13 11 11 9 9 4 8 10 10 12 12 14
31 29 29 28 28 28 28 27 26 26 25 24 25 25 26 26 24 24 23 20 18 18 18 17 16 16 14 14 12 10 7 7 6 1 3 2 -4 8 7 8 9 10 12
29 28 28 27 27 26 26 26 25 25 25 24 24 22 21 19 17 16 16 15 16 17 16 16 16 15 13 12 8 5 5 3 2 1 1 -6 -1 0 5 5 7 8 11
26 26 26 25 25 24 23 23 23 22 22 21 19 20 20 18 17 16 17 15 15 15 14 14 12 10 10 9 9 6 2 -4 -1 2 2 5 -0 3 6 7 8 10 10
24 24 23 22 21 21 21 21 20 20 20 18 18 18 18 16 17 17 16 14 12 14 13 11 9 9 8 7 5 -2 -4 -5 -5 -1 2 5 6 7 7 7 7 7 9
22 21 20 20 20 19 19 19 18 17 17 17 17 17 17 14 14 13 12 10 11 9 8 7 3 5 6 2 -3 -2 -2 3 4 5 5 5 6 7 7 7 7 7 8
19 19 18 17 17 17 16 15 16 15 15 14 13 13 12 10 8 8 8 6 5 2 1 -2 1 2 2 -4 -5 -3 2 2 6 7 6 6 5 5 6 7 7 7 8
17 16 16 15 14 13 13 12 11 11 10 8 7 7 10 8 8 2 -1 -1 -2 -9 -7 -7 -7 -5 -4 -4 -3 -2 -1 4 2 3 4 5 4 4 5 6 7 7 8
15 14 12 12 10 9 7 5 3 2 2 4 2 -1 -1 -1 -5 -15 -12 -11 -10 -10 -8 -8 -6 -5 -4 -2 -0 3 -2 -1 0 3 4 3 3 3 4 6 7 8 9

GFSGL_sfc_temp_072.txt.gz
Temp
56 56 56 55 56 57 57 57 56 57 56 57 58 57 57 57 56 54 54 51 51 49 48 48 47 47 46 46 46 46 44 44 41 43 44 43 42 41 42 42 43 42 42
57 57 56 57 57 57 58 58 59 57 58 59 59 58 57 56 53 52 50 50 50 48 47 47 46 48 46 46 45 44 44 43 42 39 41 40 39 40 39 38 42 45 42
59 58 57 57 57 58 57 58 58 58 58 59 58 56 56 54 52 51 51 49 49 49 47 46 46 46 44 44 44 43 42 43 39 37 36 35 36 36 36 37 37 37 41
58 58 57 57 58 57 55 56 58 59 58 57 55 54 53 51 50 49 49 48 47 47 46 46 46 45 44 43 42 39 37 35 34 32 31 31 32 34 32 31 32 34 34
58 58 58 58 59 56 55 57 58 58 59 57 54 53 52 50 49 48 47 45 45 44 45 45 43 42 41 41 38 35 35 33 32 29 29 28 28 28 28 30 29 30 32
57 57 59 58 59 57 56 57 59 57 56 53 50 49 47 46 41 43 44 45 45 44 39 38 38 38 37 37 36 35 35 30 28 27 27 27 27 27 28 27 27 26 26
57 57 58 58 57 57 57 54 53 52 50 49 47 46 46 45 40 41 41 45 43 39 36 36 37 36 34 34 34 34 33 33 29 28 26 27 26 28 28 28 29 28 28
56 57 58 57 55 51 50 50 50 49 48 47 46 45 45 42 39 39 39 39 36 36 36 35 34 33 33 33 30 30 30 31 31 31 29 29 28 29 30 32 31 31 32
57 55 54 54 50 49 48 47 46 46 45 44 44 44 42 39 38 37 37 36 34 33 33 33 33 32 34 34 30 29 29 30 32 33 32 32 32 33 33 30 28 26 26
53 52 51 50 48 48 47 45 46 45 43 41 40 41 38 36 36 36 36 33 31 31 32 32 32 30 32 32 29 28 26 27 27 28 28 28 30 30 30 29 27 24 25
51 50 50 49 48 48 45 44 43 40 37 35 34 35 35 35 35 35 35 33 31 29 29 27 28 31 32 32 30 28 27 27 26 26 25 25 27 26 27 28 28 25 23
50 48 48 48 46 45 42 41 39 36 34 33 32 30 31 32 34 34 34 32 32 28 28 27 28 31 32 30 29 29 27 25 23 22 21 22 22 23 24 25 26 27 28
47 46 44 44 42 42 39 37 36 35 33 32 31 28 28 30 31 33 32 32 30 28 28 29 30 31 30 28 28 26 24 23 20 19 19 20 21 23 23 23 24 26 26
44 42 41 39 38 38 38 37 35 33 32 31 30 28 27 27 27 28 27 28 30 28 27 27 26 27 25 25 25 25 23 22 20 19 18 19 21 20 19 21 19 20 20
41 39 37 35 34 32 31 33 33 33 34 32 30 29 25 24 25 26 27 25 25 26 25 24 23 23 22 23 22 22 21 21 18 18 17 17 17 17 16 18 18 18 17
35 36 34 33 32 32 31 29 32 32 32 32 31 29 28 29 29 29 29 28 28 27 23 21 18 18 18 19 19 18 18 17 17 17 16 15 14 14 14 15 17 15 15
34 34 33 32 32 30 30 29 25 28 30 30 30 29 28 28 28 28 28 28 28 26 20 19 16 15 16 19 18 17 16 16 17 15 13 13 13 12 11 12 12 13 12
31 31 30 29 28 27 26 26 26 25 23 24 28 28 28 28 28 29 29 28 22 22 21 17 16 16 17 17 16 15 15 14 13 12 11 10 9 9 8 10 10 8 10
30 29 28 28 28 28 27 26 26 25 24 24 25 26 27 27 26 26 25 21 20 19 19 18 17 17 16 15 14 12 11 10 10 8 7 7 6 7 6 8 7 6 7
28 28 28 27 27 26 26 26 26 25 25 24 23 22 21 20 18 17 18 17 18 18 18 17 17 16 14 13 12 9 8 8 8 7 7 4 2 3 4 4 5 5 8
25 25 24 24 23 23 23 22 22 22 21 19 18 20 20 18 17 17 18 16 16 16 15 16 14 12 12 11 10 9 7 5 5 5 3 4 1 1 5 6 7 8 9
22 22 21 21 21 20 20 20 19 19 18 17 17 18 18 16 17 17 15 13 12 13 13 12 10 10 10 8 7 5 3 0 0 2 1 1 4 6 6 6 6 7 8
20 19 19 19 19 18 17 17 16 16 15 15 15 15 14 12 11 11 10 9 10 8 8 8 4 5 7 4 2 1 -2 1 3 3 3 3 4 5 6 5 6 6 7
18 17 17 16 15 14 13 12 13 13 13 11 10 10 8 5 1 1 -1 -1 0 -3 -5 -6 -2 -0 1 -3 -4 -2 1 0 3 5 4 3 3 3 4 5 5 6 7
15 14 13 11 10 9 8 7 6 5 5 4 0 -1 3 1 3 -6 -11 -9 -8 -11 -7 -9 -9 -6 -5 -5 -4 -3 -3 1 1 0 2 2 2 2 3 4 4 5 6
11 10 8 7 6 5 2 -1 -3 -3 -5 -4 -7 -6 -3 -2 -4 -11 -11 -11 -11 -10 -8 -8 -6 -6 -6 -4 -2 -0 -2 -3 -1 -0 1 2 1 1 3 3 4 5 7

GFSGL_sfc_temp_075.txt.gz
Temp
62 62 62 61 61 61 61 61 62 64 64 62 62 62 63 63 62 60 60 60 58 57 55 55 52 50 49 50 51 51 53 51 48 51 51 52 51 55 55 55 54 52 53
61 61 60 61 61 60 60 61 63 63 64 64 65 64 63 58 57 57 57 57 55 53 51 51 50 50 49 50 49 49 52 49 46 44 44 52 46 53 51 50 50 51 50
62 60 60 60 61 61 62 63 64 63 63 64 64 62 62 63 60 59 56 53 53 53 52 51 49 48 46 48 49 48 47 47 43 41 40 49 47 51 49 47 46 45 47
61 61 59 60 60 61 62 63 62 63 62 63 62 62 62 62 58 56 54 53 52 52 50 50 48 48 47 48 46 44 41 38 41 37 38 44 46 48 45 43 43 44 43
61 61 60 60 61 62 62 62 62 63 63 64 62 57 57 56 54 53 54 52 50 47 47 47 46 46 44 44 43 43 39 37 37 35 38 42 44 43 41 43 38 41 42
62 61 62 62 62 61 61 61 61 62 63 63 62 59 54 54 45 45 49 49 47 45 41 40 40 40 38 38 38 38 40 37 35 38 40 41 41 39 40 38 37 37 37
61 62 62 63 62 61 62 62 61 61 61 59 59 56 53 52 42 43 43 47 45 42 39 38 37 36 36 38 35 35 34 34 33 41 39 39 37 39 37 36 37 36 36
62 62 62 62 62 63 62 61 61 59 57 53 51 50 49 46 40 41 40 43 39 38 37 37 35 34 35 35 34 33 34 35 36 37 38 38 37 38 37 37 37 37 39
61 61 62 62 61 57 57 55 52 50 49 48 47 45 43 41 38 38 38 37 35 34 34 35 35 34 33 35 34 33 33 35 34 33 32 32 32 32 33 36 34 32 31
61 61 62 60 52 51 49 48 47 47 45 44 42 42 39 38 37 37 37 34 32 31 33 33 33 34 33 33 33 34 33 34 34 34 35 34 32 34 30 34 33 29 30
57 54 53 53 52 50 48 46 44 42 39 37 35 36 37 36 35 36 36 34 32 30 30 30 32 33 33 32 33 35 33 33 29 31 31 32 32 31 32 32 32 30 29
53 51 50 50 48 47 45 42 40 38 34 33 32 31 32 33 34 34 34 33 33 30 30 31 32 33 32 31 32 29 27 28 29 28 28 27 27 28 29 29 30 30 32
49 47 45 44 43 43 40 38 36 36 34 32 31 30 29 30 31 33 33 32 32 30 31 31 32 32 30 30 29 27 26 28 27 26 26 26 27 28 28 28 28 29 29
44 43 42 40 38 38 38 37 35 34 33 32 30 28 28 28 28 29 29 30 31 31 30 32 31 30 30 29 28 27 28 27 25 25 25 25 26 25 25 25 24 25 24
41 39 37 36 35 32 32 34 33 33 34 33 31 29 26 25 26 28 29 29 30 29 29 29 28 28 26 26 26 26 27 26 25 25 23 23 23 23 23 23 22 23 22
37 37 35 34 33 33 32 30 32 31 32 31 30 29 28 29 29 29 28 28 28 27 27 26 24 25 25 25 25 25 25 22 23 22 21 21 20 19 20 20 21 21 19
36 35 34 33 32 31 30 29 26 29 31 31 30 30 29 29 29 29 28 28 28 27 26 25 24 23 23 25 25 24 22 22 20 19 18 18 17 17 17 17 18 18 17
31 31 30 29 29 28 28 28 27 26 25 26 29 29 29 29 28 29 29 29 26 26 26 24 23 23 24 24 23 21 21 19 19 18 17 16 15 15 15 15 16 15 16
30 29 29 29 28 28 28 27 27 26 27 26 27 28 28 28 28 27 27 27 26 25 25 25 24 24 23 22 20 19 17 16 16 14 14 13 13 14 13 14 14 13 12
28 28 28 27 27 27 28 28 28 27 27 27 26 24 25 26 24 23 24 24 24 24 23 23 23 22 20 19 17 16 15 15 14 14 14 13 13 13 12 12 13 13 14
24 24 25 25 26 26 26 26 26 25 24 23 23 22 22 24 22 22 22 21 21 21 20 20 18 17 17 16 16 15 14 13 13 12 12 12 12 10 12 13 13 14 14
24 24 23 22 23 23 23 23 23 22 22 21 21 20 19 21 20 19 18 17 17 17 17 16 15 15 14 13 12 11 10 9 10 10 10 10 10 11 12 12 12 12 13
22 22 21 21 21 20 20 20 19 19 18 18 18 17 17 16 16 16 15 14 14 13 13 13 12 11 12 11 11 10 8 8 9 9 8 8 9 10 10 10 10 10 12
20 19 18 16 16 16 15 15 15 15 15 15 15 15 14 13 12 10 10 11 11 10 10 8 8 7 7 7 9 9 9 8 8 8 8 7 7 8 9 9 10 10 10
16 15 14 13 13 12 12 12 11 11 11 11 11 11 11 10 10 9 8 8 7 7 7 6 6 6 5 3 3 4 4 3 5 5 5 6 5 6 6 8 8 9 10
13 12 11 11 10 9 9 8 7 7 7 7 7 7 8 8 7 7 6 5 4 4 4 5 4 3 2 4 5 4 1 1 1 2 4 5 5 6 7 8 8 9 10

GFSGL_sfc_temp_078.txt.gz
Temp
71 70 69 70 70 70 69 69 70 70 71 71 71 71 71 71 72 71 71 71 69 66 63 62 59 56 55 56 53 54 53 55 53 53 62 61 56 58 57 58 60 60 60
71 70 69 69 69 69 69 69 70 70 71 71 71 71 71 71 71 71 69 65 61 60 60 56 57 54 53 53 52 54 53 55 53 53 53 56 55 52 51 56 58 60 58
71 69 68 67 68 68 68 69 70 70 71 71 72 71 71 71 72 71 65 61 61 65 60 55 54 51 52 51 49 52 52 52 53 56 47 48 45 49 48 52 54 54 55
70 69 67 67 68 68 69 69 69 70 69 70 71 70 70 71 70 67 66 64 64 62 59 54 54 52 52 50 49 50 49 48 45 47 45 44 46 47 46 49 51 53 52
70 69 69 68 69 69 68 69 69 69 69 70 68 69 69 69 68 63 63 62 60 59 55 53 53 52 47 48 48 46 43 43 42 44 42 41 41 42 43 50 47 49 50
69 69 70 70 69 68 69 68 69 68 69 69 69 69 68 67 51 46 56 61 57 54 49 47 46 45 43 41 42 40 42 42 42 44 42 38 40 45 46 47 46 44 43
69 70 70 70 69 68 69 69 67 67 67 67 67 67 67 68 45 44 44 60 55 51 46 41 40 40 40 37 36 35 34 34 35 41 40 42 43 45 44 44 44 44 43
70 71 71 69 69 69 69 68 67 67 66 66 66 67 67 64 43 43 42 50 46 44 41 41 37 36 36 35 35 33 34 36 37 38 42 41 42 44 44 44 44 43 44
71 71 71 70 69 69 68 67 67 66 64 64 62 60 56 49 40 39 42 40 37 36 37 37 36 34 34 35 33 33 33 33 34 34 33 33 33 33 35 41 38 38 36
71 72 73 71 69 68 67 66 59 60 56 48 44 45 42 41 39 39 40 36 33 32 33 33 33 33 32 32 33 33 32 33 34 35 35 34 33 36 31 36 39 34 36
74 72 71 69 66 63 60 54 50 45 42 38 36 37 38 38 37 38 37 35 33 31 31 30 31 31 31 33 35 35 35 37 32 38 38 40 40 39 40 39 39 37 34
64 62 62 62 55 53 49 45 43 40 37 35 34 33 33 34 35 35 35 34 33 30 29 30 31 32 32 33 32 30 30 33 34 35 35 35 36 36 38 38 37 37 37
57 53 50 49 46 46 44 41 39 39 36 34 33 31 30 32 32 33 32 31 30 29 29 31 31 31 31 30 29 28 30 33 32 30 32 34 35 35 35 33 34 35 34
45 43 42 41 40 39 39 39 38 35 34 32 31 29 28 28 28 28 29 29 30 29 30 31 31 31 32 31 29 29 31 32 31 31 31 33 33 31 29 32 29 29 29
42 40 38 37 35 33 33 35 35 35 36 33 31 30 27 25 27 28 29 29 29 29 29 30 30 31 29 30 31 31 32 31 30 31 29 29 29 29 28 30 28 27 25
37 36 35 34 34 33 31 30 32 32 32 32 31 29 28 29 29 30 29 29 29 29 30 29 29 29 29 29 30 30 30 27 30 28 26 26 25 25 25 26 27 26 24
34 35 34 34 32 31 30 29 27 29 31 30 30 30 30 30 30 30 29 28 28 28 29 28 28 28 29 31 30 29 28 26 25 25 24 24 23 23 22 22 23 23 23
32 31 31 31 30 29 29 28 28 27 25 26 29 30 30 30 30 29 29 27 26 28 28 27 27 27 28 28 27 26 26 25 24 23 22 22 20 20 19 19 20 20 21
31 30 30 29 29 29 28 28 27 27 27 26 27 28 29 29 28 28 28 29 28 27 28 27 27 27 26 26 24 23 22 21 20 19 20 19 19 18 18 19 20 18 18
27 28 28 28 28 28 28 28 28 28 28 27 27 27 28 28 26 26 27 27 27 26 26 26 25 24 23 22 22 20 20 20 19 19 18 17 17 17 16 17 17 17 18
26 27 27 28 27 27 27 27 27 26 25 24 23 25 26 26 25 25 24 23 23 22 22 23 22 21 21 20 20 19 18 17 17 16 16 16 15 14 16 16 16 17 17
27 25 25 24 25 24 24 25 25 25 24 22 22 23 24 24 23 22 21 20 20 20 20 20 20 20 19 18 17 16 15 14 15 14 14 13 14 14 14 14 14 15 15
24 23 23 22 23 23 23 23 23 22 22 22 22 21 21 20 20 19 18 18 18 18 17 18 17 16 17 16 16 15 13 13 13 13 11 11 11 12 13 12 12 12 13
22 21 20 19 19 20 20 19 19 19 20 20 20 19 18 18 17 16 16 16 16 16 16 14 14 13 12 12 13 14 14 13 12 11 10 10 10 11 11 11 12 12 13
20 20 19 18 18 18 18 18 17 17 17 17 17 17 17 16 15 15 14 14 12 12 12 11 12 11 10 8 8 8 9 7 7 7 8 8 9 9 10 10 11 12 12
18 17 17 17 16 16 15 14 15 15 14 14 15 14 14 14 13 13 12 11 9 9 10 11 10 9 7 9 9 8 4 3 3 3 5 8 8 9 11 11 11 11 12

GFSGL_sfc_temp_081.txt.gz
Temp
74 72 71 70 69 69 70 70 70 70 70 70 70 68 69 70 70 70 70 70 69 69 68 68 67 66 62 61 61 58 55 53 51 56 61 63 59 61 57 59 60 61 58
76 74 72 73 72 70 70 71 71 70 70 70 71 70 71 71 71 70 69 70 70 69 69 68 65 61 61 61 57 55 53 54 52 51 55 58 59 60 57 57 59 60 56
76 74 72 72 72 72 71 72 71 71 71 72 72 71 71 71 72 72 71 70 70 70 70 68 62 63 59 56 54 52 52 53 52 52 51 53 52 53 54 52 49 49 55
75 75 72 72 72 72 73 72 71 71 71 71 71 71 71 72 73 72 72 70 70 70 68 66 63 63 61 55 52 52 52 50 50 50 45 47 46 48 48 45 43 50 48
74 74 73 73 73 72 72 72 72 72 72 72 72 72 72 71 72 71 72 70 70 67 65 63 60 59 51 53 52 51 48 47 45 45 39 40 39 41 42 44 42 43 44
74 74 74 74 72 71 72 71 71 71 72 72 71 71 70 71 57 51 59 70 67 66 60 58 55 49 48 44 43 43 47 46 43 41 39 39 39 42 41 40 40 39 41
75 74 74 74 72 71 72 72 71 70 70 69 70 70 70 70 51 48 47 63 61 63 58 57 49 47 43 41 36 35 36 36 36 40 37 37 37 39 41 40 42 42 43
75 75 75 75 74 74 72 71 70 70 69 69 69 69 70 70 49 46 43 57 58 59 56 51 46 41 40 37 36 34 33 34 34 36 36 36 38 40 43 43 44 45 46
75 75 76 76 74 74 72 70 71 70 68 67 68 67 68 68 41 42 45 50 43 39 39 39 39 36 36 37 34 32 31 30 32 32 33 34 34 35 36 43 39 38 36
77 76 77 77 74 72 72 71 71 69 67 64 61 53 44 54 41 40 43 40 35 34 34 34 35 34 33 34 33 32 29 28 30 32 31 33 34 35 32 36 39 36 36
82 79 76 76 72 73 72 72 69 60 49 43 40 38 38 39 39 39 39 37 34 32 31 31 32 33 33 33 32 32 31 33 33 35 35 36 39 40 38 37 39 37 34
70 76 74 74 73 68 68 58 52 46 40 35 34 33 34 34 35 36 35 34 34 31 30 30 31 32 31 30 29 30 32 32 33 33 34 36 37 37 39 40 40 38 39
60 55 52 49 48 48 48 45 42 41 38 34 33 31 31 32 32 33 33 32 32 30 31 31 31 30 29 28 28 27 31 32 31 30 32 35 37 37 36 35 35 36 36
45 43 42 41 40 40 40 40 39 37 35 33 31 29 28 29 29 30 30 31 32 31 30 29 29 29 28 27 27 29 30 31 31 31 31 33 34 33 32 33 31 31 30
40 38 36 35 34 32 32 33 34 34 34 32 30 29 27 26 27 29 30 29 30 30 29 29 29 28 27 28 29 30 30 30 30 30 28 29 30 30 29 30 29 28 25
35 34 33 32 32 32 31 29 32 32 32 32 31 30 29 30 31 31 31 31 31 30 30 28 28 29 29 29 28 28 29 28 28 28 27 27 26 25 25 26 27 25 24
34 33 32 32 31 30 30 29 27 29 31 31 31 31 31 31 31 30 30 30 30 31 30 29 29 29 27 27 27 28 27 26 27 27 25 25 24 23 22 22 23 23 22
32 32 31 30 29 29 28 28 27 26 25 26 30 30 30 30 30 29 29 30 30 30 29 28 28 28 28 27 27 26 26 25 24 24 23 22 21 21 20 20 20 19 20
31 30 30 29 29 28 28 28 27 27 26 26 27 28 28 29 29 29 30 30 28 28 29 28 28 27 27 26 25 24 23 23 22 21 21 20 20 19 18 18 18 17 17
28 29 29 29 29 29 29 29 28 27 26 26 25 25 28 28 25 26 27 27 26 26 26 26 25 25 24 23 23 22 21 21 21 20 19 18 18 18 16 16 16 15 16
28 28 28 28 28 28 28 26 26 25 23 23 23 25 25 24 23 22 22 22 22 22 22 23 22 22 22 21 22 20 19 18 18 18 17 17 16 14 16 16 15 15 16
26 27 27 27 26 26 26 26 25 24 23 22 22 23 23 23 22 21 20 20 20 20 21 21 21 21 20 19 18 17 16 15 16 15 14 14 14 14 14 14 14 14 15
25 24 24 24 23 23 23 23 22 22 21 21 21 20 21 20 20 20 19 19 19 18 18 18 18 16 18 16 16 16 14 14 14 14 12 12 12 12 12 12 12 12 12
24 23 22 22 22 22 21 21 21 21 21 20 20 19 19 19 18 17 17 16 17 17 17 15 16 15 13 13 14 14 15 14 12 11 10 10 10 11 11 11 11 11 12
22 22 21 21 20 19 19 19 19 19 19 19 19 18 19 18 18 17 16 15 14 14 14 14 14 13 12 10 10 11 10 7 7 5 7 8 9 9 9 10 11 12 12
20 20 19 19 19 19 18 17 17 17 17 17 17 16 16 16 15 15 14 12 10 11 13 13 13 11 10 11 12 9 5 4 4 3 5 6 7 9 10 11 11 10 11

GFSGL_sfc_temp_084.txt.gz
Temp
64 64 64 64 65 64 64 63 62 62 62 63 62 62 62 62 63 62 63 63 63 61 61 61 61 61 60 60 60 59 57 56 54 57 54 55 56 56 51 52 51 50 48
69 65 63 64 65 64 64 65 64 63 64 64 65 64 63 63 63 62 62 64 63 61 62 61 60 61 60 60 57 57 56 57 54 51 53 51 52 56 53 51 54 56 52
71 68 65 64 64 64 65 65 65 65 65 66 66 66 65 64 64 64 63 64 63 63 63 62 62 61 59 59 59 56 55 54 54 53 52 48 50 50 50 51 50 47 53
71 70 67 66 66 66 66 66 66 66 65 66 66 65 66 65 65 65 66 64 64 64 63 63 63 62 60 58 57 55 54 52 52 51 50 46 44 45 47 44 42 45 45
70 70 69 68 68 68 67 66 67 67 67 67 65 65 66 66 66 65 66 64 63 63 64 63 63 60 53 56 57 55 53 51 50 49 44 41 39 39 42 42 42 40 42
70 69 71 70 69 67 67 67 66 66 66 66 65 65 64 67 56 51 59 64 64 63 62 62 62 51 51 47 46 46 50 50 49 47 48 44 43 42 39 37 35 34 34
71 71 71 71 69 68 67 67 66 65 65 64 64 65 64 65 51 49 48 64 63 62 61 60 54 50 47 48 39 38 37 37 36 47 45 39 35 36 36 34 33 33 34
73 72 72 71 70 69 68 66 65 65 64 64 64 64 64 66 50 47 46 58 61 60 55 53 53 46 45 41 38 36 36 34 35 36 36 34 35 37 37 36 34 35 38
74 73 73 71 70 69 67 66 66 65 64 64 64 63 63 63 48 46 46 55 57 45 41 41 42 39 38 40 35 33 31 30 33 34 34 33 33 33 33 33 31 31 30
72 74 74 73 71 69 68 67 66 66 65 64 62 53 43 56 40 40 44 45 37 34 34 34 35 35 35 36 35 33 29 27 28 28 29 30 32 32 32 32 31 30 30
65 65 68 73 71 70 68 67 65 64 54 44 38 38 40 41 40 39 39 38 35 33 32 31 32 33 33 33 33 31 29 29 29 30 30 30 30 31 31 33 34 31 29
57 54 53 53 56 61 61 51 49 45 40 36 34 33 34 34 36 36 36 35 35 32 30 31 31 32 32 32 31 31 31 30 29 28 29 29 30 30 33 33 33 33 34
45 44 43 44 44 44 47 45 42 41 37 34 33 31 30 32 32 34 34 33 32 30 31 31 31 31 30 30 31 31 30 29 29 28 28 28 29 31 32 31 32 33 32
39 38 37 35 35 35 37 37 37 36 35 33 32 30 29 29 30 31 31 31 31 30 29 28 27 27 27 27 28 29 28 27 27 26 26 27 28 27 27 29 27 27 26
37 35 34 33 32 31 30 31 32 32 34 33 31 30 27 26 28 30 30 29 28 28 28 27 26 26 26 27 28 27 27 27 26 25 25 26 26 26 26 26 24 23 21
34 33 32 32 31 31 29 29 31 31 31 31 31 30 30 31 32 32 31 31 31 30 28 27 27 27 27 27 26 25 25 25 24 24 24 24 23 22 22 23 24 22 20
32 32 31 31 30 30 29 28 26 29 31 31 32 31 31 31 31 31 31 32 32 31 28 27 25 25 25 25 25 24 22 23 25 23 22 20 20 20 20 19 19 19 18
30 29 29 28 28 28 27 27 27 25 25 26 29 29 30 30 31 31 31 30 27 27 26 25 24 24 24 23 23 22 22 21 19 18 16 15 13 16 16 16 17 14 15
30 29 29 28 28 28 27 27 26 25 25 24 26 27 28 29 29 29 29 26 24 23 23 22 22 22 22 22 21 20 19 16 14 12 15 16 12 12 10 13 13 11 12
28 29 29 29 29 28 27 26 25 24 24 24 25 24 24 23 20 20 21 21 21 21 21 20 21 20 20 19 18 17 15 13 12 13 9 6 8 9 7 6 6 8 11
27 26 27 27 26 25 24 22 22 22 21 21 21 22 22 20 18 18 18 18 18 18 18 19 18 18 17 17 16 13 11 8 9 8 8 7 0 2 7 6 7 10 12
25 24 24 23 24 23 23 23 22 21 20 19 19 20 20 19 18 17 17 17 16 16 17 16 15 15 13 13 12 8 8 5 5 5 3 3 5 5 5 5 4 4 8
23 23 22 22 21 21 21 21 20 19 18 18 18 17 17 16 16 15 15 15 15 14 14 13 12 11 10 7 9 10 7 8 8 4 -1 -1 2 3 1 2 5 6 6
23 22 21 20 20 20 19 19 19 19 18 17 17 16 16 15 14 13 12 12 12 12 10 9 11 8 7 5 6 5 9 5 4 3 -0 -2 0 4 2 4 5 4 6
20 19 19 18 18 17 16 16 16 16 15 15 15 14 15 14 13 11 11 9 8 7 8 9 8 7 6 2 4 4 0 -3 -6 -4 -4 -1 -1 -2 1 5 6 8 7
18 17 17 16 15 15 14 14 13 13 13 13 12 12 11 11 10 9 8 3 1 5 5 4 7 3 3 5 4 -1 -4 -3 -5 -3 -5 1 -1 1 5 4 3 5 6

GFSGL_sfc_temp_090.txt.gz
Temp
59 59 60 59 60 59 56 56 56 57 57 57 59 58 59 59 59 58 58 58 57 58 58 57 58 60 58 58 58 57 57 56 54 58 60 60 54 56 57 53 55 55 56
60 59 60 60 60 58 57 57 57 57 57 58 58 58 59 59 60 59 58 60 57 57 57 56 58 59 57 58 57 57 57 57 56 54 57 56 52 54 55 52 53 54 54
60 59 59 60 60 59 58 57 58 57 57 58 59 57 58 58 59 59 60 59 59 60 60 59 59 58 57 58 57 56 56 56 56 56 57 59 56 50 51 51 49 51 53
59 59 58 59 60 60 60 59 58 58 57 57 58 58 58 59 59 59 59 58 58 59 59 60 60 59 58 58 56 56 57 56 56 55 55 56 53 50 50 49 45 48 50
59 59 59 60 61 61 60 61 60 59 58 58 58 58 58 58 59 58 59 58 58 57 58 58 57 57 53 55 57 57 56 55 55 55 55 55 51 42 47 49 49 50 42
60 59 60 60 60 60 60 60 60 60 60 59 58 57 57 58 52 48 54 58 58 57 57 57 58 51 51 47 48 49 56 55 55 55 55 53 53 52 52 49 48 38 39
61 60 61 60 59 59 60 60 59 59 60 59 58 58 57 58 48 47 46 58 58 58 58 58 57 58 51 57 47 43 40 37 38 55 55 55 54 54 51 40 37 36 34
56 58 58 60 60 60 60 59 59 59 59 59 59 60 59 60 48 47 44 55 58 58 58 58 57 57 56 54 53 45 39 36 37 38 41 40 37 38 40 39 37 33 33
51 51 52 52 54 56 59 60 60 60 59 59 60 59 60 61 47 46 45 54 56 57 59 58 58 55 51 45 46 38 33 32 35 36 36 35 36 36 37 37 33 34 30
47 47 48 47 49 48 49 54 61 61 60 60 59 60 56 59 48 45 46 57 55 54 56 42 37 47 44 40 50 39 33 31 31 31 31 31 32 32 32 33 33 31 30
46 44 44 43 44 44 45 45 46 50 58 57 54 40 38 36 38 38 42 52 53 51 44 33 33 35 36 36 38 38 35 31 29 29 29 30 30 30 30 30 30 30 29
42 40 39 38 39 40 40 40 40 42 41 40 36 34 34 34 34 35 35 37 40 36 32 32 32 33 33 33 32 31 31 31 30 29 28 27 27 27 28 29 29 29 30
39 36 34 33 33 34 34 34 37 39 37 34 33 31 30 31 32 33 33 33 32 32 33 32 32 32 31 30 31 31 30 30 28 26 25 25 27 28 29 28 28 29 29
36 33 32 32 31 31 32 32 31 33 33 33 33 31 30 28 28 29 29 29 30 29 28 28 28 28 28 28 28 28 27 27 26 25 24 25 25 24 24 25 23 24 24
34 33 31 31 31 30 30 30 30 31 31 30 29 30 28 27 28 29 29 28 28 28 28 28 26 26 25 24 24 24 24 24 23 24 23 22 22 22 21 23 22 22 20
31 31 30 30 29 30 29 29 32 32 33 32 32 30 30 31 32 32 32 31 31 30 27 25 24 23 22 21 22 21 22 22 21 21 20 20 19 20 19 20 20 18 16
29 29 29 29 29 28 28 27 25 28 30 31 31 31 32 31 31 31 30 30 29 28 24 23 22 21 21 21 20 19 18 20 21 19 18 18 18 17 16 15 14 14 13
28 28 27 27 26 26 26 25 23 21 19 20 26 27 28 29 28 28 27 26 22 22 21 20 19 19 20 19 19 18 18 17 17 16 14 13 14 14 13 12 12 10 11
26 26 26 25 25 24 24 23 22 21 19 19 20 21 22 25 24 24 24 20 18 18 18 18 17 17 17 16 15 15 14 13 12 11 10 9 4 10 8 9 9 8 8
24 24 23 23 22 22 21 20 19 18 17 16 16 16 18 18 15 14 15 16 16 15 15 15 15 15 14 14 13 12 11 11 10 8 -0 1 0 6 5 4 4 3 6
21 21 22 22 21 20 19 18 18 17 16 15 15 16 16 14 12 12 12 12 12 12 11 11 10 10 10 9 9 6 5 2 4 3 1 -0 -8 -3 2 3 2 3 6
21 20 20 19 19 18 18 18 17 16 15 14 13 13 13 12 11 10 8 7 8 9 8 7 6 6 6 5 4 -0 -3 -6 -6 -6 -5 -4 -2 -3 -3 -3 -5 -7 -1
19 18 18 18 18 17 16 16 14 13 12 11 11 10 8 6 5 5 4 2 5 5 6 4 3 3 2 -1 1 -1 -3 -7 -9 -12 -13 -13 -7 -7 -12 -8 -6 -7 -6
17 16 16 15 14 14 13 12 12 12 11 9 8 8 5 3 -0 -2 -2 -2 0 -0 -2 -2 1 1 1 -5 -4 -3 -1 -10 -7 -9 -15 -14 -9 -6 -10 -7 -6 -8 -7
13 13 12 11 10 9 9 8 7 6 6 6 4 6 4 -1 -3 -8 -5 -1 1 -2 -3 -6 -6 -5 -5 -6 -6 -5 -8 -8 -12 -11 -13 -12 -14 -14 -10 -7 -10 -6 -8
12 11 10 9 7 6 6 4 2 3 2 1 -1 -4 -5 -7 -9 -14 -10 -7 -7 -6 -6 -6 -5 -7 -7 -6 -5 -7 -8 -7 -12 -10 -16 -10 -12 -12 -12 -12 -9 -8 -2

GFSGL_sfc_temp_093.txt.gz
Temp
60 60 57 56 56 55 54 54 54 54 55 56 56 56 56 56 56 56 58 59 57 58 56 54 57 58 57 57 57 57 56 55 53 58 58 58 54 57 58 57 58 57 57
59 60 58 57 57 56 55 54 54 54 55 56 56 56 57 57 56 56 56 57 56 56 55 54 56 56 55 56 56 56 56 56 55 54 58 55 53 56 58 58 56 56 57
58 59 58 56 56 57 56 54 54 54 54 56 56 56 56 57 56 56 57 57 56 56 56 55 56 56 55 56 55 56 56 57 56 55 56 58 57 51 53 53 55 54 52
57 57 58 56 56 56 57 56 55 55 55 55 56 56 56 57 57 57 57 56 56 56 57 57 57 56 56 56 55 55 56 55 55 54 54 55 55 53 48 50 49 46 51
57 57 56 57 57 57 56 56 56 56 56 56 55 56 56 56 57 57 58 57 56 56 56 57 57 57 53 55 58 57 56 54 54 53 53 54 54 53 48 55 52 53 50
58 57 58 57 57 57 57 57 56 56 56 56 55 55 55 57 50 47 53 57 57 56 55 56 56 51 51 47 47 49 55 54 53 54 54 53 55 56 56 52 52 50 46
58 59 59 58 57 58 59 58 58 58 57 56 56 56 55 56 47 46 45 56 56 56 56 56 56 56 49 55 47 44 44 44 46 58 55 55 55 57 57 54 52 51 49
50 51 51 52 54 58 58 58 58 58 58 58 58 58 57 57 46 45 44 53 56 56 56 55 55 55 55 53 52 52 49 51 48 46 51 54 57 47 45 48 52 39 34
47 47 47 47 49 50 50 53 58 58 58 58 59 58 58 58 47 44 44 52 54 54 56 56 55 54 51 46 51 50 49 36 36 37 36 36 35 36 38 39 35 35 32
43 43 43 43 44 43 44 46 48 50 56 59 58 58 49 49 36 37 43 54 52 52 53 53 46 51 48 43 50 51 49 36 32 30 30 31 32 32 32 32 34 34 30
42 40 39 39 41 39 40 41 42 44 45 41 38 35 35 33 35 36 37 39 48 49 48 43 34 35 36 38 39 48 45 32 29 30 29 29 29 29 29 29 29 29 27
39 35 34 34 35 36 35 35 38 39 37 35 34 32 31 31 33 34 35 36 37 34 32 32 32 33 34 33 32 32 32 31 29 28 27 26 26 27 27 28 29 29 29
36 33 33 33 33 33 32 32 32 34 34 33 33 32 31 31 31 32 33 33 34 31 31 31 31 31 31 30 31 30 29 28 27 25 24 24 24 25 26 25 27 26 26
34 32 32 31 31 31 32 32 30 30 30 30 30 29 28 29 28 29 29 30 31 30 29 28 27 27 27 27 27 27 26 26 25 23 22 22 23 22 21 23 22 23 22
33 32 31 31 30 30 30 30 30 31 30 28 28 27 27 26 28 30 30 29 28 28 27 26 25 24 23 23 23 23 23 23 22 22 21 20 20 20 19 20 20 20 18
30 30 29 29 29 29 28 27 30 30 31 32 32 31 31 32 32 32 31 31 30 29 25 22 21 21 20 20 19 19 20 20 20 20 19 19 18 17 17 18 18 17 15
29 29 29 29 28 27 26 25 22 24 28 29 29 30 30 30 30 30 29 28 28 26 21 20 19 19 19 19 19 18 16 17 18 17 17 17 16 16 15 14 14 14 14
27 26 26 25 25 25 23 22 20 18 17 17 23 26 27 27 28 27 27 25 19 20 19 18 17 17 18 17 17 16 15 15 14 14 13 13 13 13 12 12 12 11 12
23 23 23 23 22 22 20 19 18 17 16 16 17 18 18 23 23 23 22 17 15 15 16 15 15 15 15 15 13 13 12 10 10 8 8 9 8 9 8 8 9 8 8
21 22 21 21 20 20 19 18 17 16 15 14 13 14 15 15 12 12 12 13 12 12 13 13 13 13 12 12 11 11 10 9 8 7 4 3 2 5 3 4 2 0 6
19 19 19 19 18 18 17 16 16 15 13 12 11 13 13 11 10 9 10 9 9 8 8 9 8 7 9 8 8 5 3 2 3 2 2 0 -8 -5 -0 0 1 3 5
17 17 17 17 17 16 16 16 14 14 13 11 10 10 10 9 8 8 6 5 5 5 5 4 4 4 4 3 2 -2 -4 -8 -7 -6 -6 -6 -4 -6 -6 -5 -6 -6 -1
16 15 15 15 15 14 13 14 12 11 10 9 8 7 6 5 4 3 3 3 4 2 4 3 1 1 -1 -4 -3 -4 -5 -8 -9 -14 -14 -13 -7 -8 -13 -10 -7 -7 -7
14 13 13 11 11 11 9 9 10 10 9 7 5 3 2 -0 -1 -0 -0 0 0 -2 -4 -2 0 0 -2 -11 -10 -7 -4 -11 -9 -12 -16 -15 -10 -7 -11 -8 -7 -11 -10
11 10 9 7 7 6 5 5 5 5 4 3 3 2 1 1 -0 -5 -5 -4 -3 -5 -4 -4 -5 -6 -9 -11 -9 -7 -9 -10 -14 -13 -14 -13 -15 -14 -12 -9 -13 -9 -11
9 8 7 6 5 4 2 -0 -1 -0 -1 -3 -4 -6 -6 -4 -5 -8 -6 -7 -9 -7 -7 -8 -9 -10 -9 -7 -6 -8 -10 -9 -13 -13 -18 -11 -13 -14 -14 -14 -12 -11 -5

GFSGL_sfc_temp_099.txt.gz
Temp
59 58 61 62 61 61 61 61 62 60 59 58 58 59 58 58 58 58 57 59 59 59 60 61 60 60 58 62 64 64 62 63 60 66 69 69 60 58 59 61 58 58 59
59 59 61 61 61 60 60 60 61 61 59 60 59 58 58 58 60 60 57 59 59 59 58 57 56 57 57 59 59 59 61 61 60 62 67 66 64 62 65 61 60 62 62
60 59 59 59 59 60 60 60 60 61 62 62 61 57 56 57 58 58 58 58 57 57 57 56 57 57 55 56 56 56 58 59 59 62 64 67 64 61 61 59 60 59 60
60 60 59 60 60 60 60 60 59 60 61 61 62 62 61 60 58 57 57 57 58 60 61 61 58 56 56 56 57 56 56 57 59 61 61 63 64 67 65 63 64 64 64
59 59 58 60 59 59 60 60 60 59 60 62 61 61 62 62 62 61 59 57 57 58 62 63 64 61 53 56 58 57 57 56 59 59 59 61 62 62 61 63 61 64 65
58 57 58 58 58 57 58 60 59 59 60 60 59 60 60 61 49 46 55 61 60 61 61 62 63 53 52 46 47 48 57 59 59 58 58 57 58 61 63 60 59 57 54
48 49 50 52 52 54 57 57 57 59 59 59 59 60 60 61 45 45 44 62 62 61 61 61 62 62 54 62 48 43 44 45 47 61 58 58 58 60 63 59 58 57 56
43 43 45 47 47 48 48 48 48 52 56 56 56 57 57 48 38 41 42 53 56 56 57 58 59 61 61 59 58 59 57 54 50 49 52 56 54 42 44 49 51 54 48
39 40 41 43 43 43 43 43 44 47 46 41 41 43 45 38 36 37 40 49 51 53 54 54 46 48 43 40 48 50 50 49 36 37 34 33 33 34 34 39 42 43 42
39 39 39 41 40 40 41 41 43 43 40 39 37 36 34 36 36 37 38 45 47 46 36 36 34 36 36 36 41 43 44 43 33 32 31 30 30 30 30 30 31 34 36
39 38 38 39 38 38 39 40 41 39 37 35 33 32 32 33 34 35 36 40 38 34 32 31 32 33 34 34 34 36 36 33 31 29 28 27 27 26 26 26 25 25 25
38 37 35 36 36 37 37 37 38 38 35 33 32 31 32 32 33 33 33 33 33 30 28 29 30 31 31 31 30 30 30 29 27 25 24 23 24 25 24 24 24 24 25
36 34 34 33 34 34 33 33 34 34 33 32 32 31 31 33 32 32 32 31 31 30 29 29 29 29 29 28 28 28 28 26 24 23 23 22 23 25 27 27 27 25 24
34 33 33 32 32 34 34 33 32 32 31 32 31 30 31 32 32 32 32 32 31 30 29 28 28 28 27 28 28 28 27 27 26 25 24 24 26 26 25 27 26 26 23
33 33 32 32 31 30 30 30 31 30 32 30 30 30 29 28 29 31 31 30 30 28 29 29 28 27 26 26 26 26 27 27 26 26 25 25 25 25 24 26 26 25 23
33 32 31 31 30 30 29 27 29 30 30 31 31 30 30 30 30 30 29 28 28 28 27 25 24 24 23 23 23 23 24 23 25 25 25 24 23 23 23 24 25 23 22
29 30 31 30 29 28 27 26 23 24 26 27 28 29 29 29 29 28 27 27 27 27 24 23 22 22 23 23 22 22 19 21 22 23 22 22 22 22 22 21 21 22 20
25 24 26 25 25 24 24 23 24 23 21 21 22 25 27 27 27 26 26 27 25 24 24 22 21 22 22 21 20 20 19 19 19 20 19 19 19 20 19 18 19 18 19
27 25 25 24 24 23 23 23 22 21 20 20 21 21 20 22 22 22 23 22 21 20 21 20 20 20 20 19 18 17 15 14 15 16 16 16 16 18 16 17 16 13 16
24 22 23 24 23 22 22 21 19 18 17 17 16 16 19 20 18 16 17 18 18 18 18 18 18 18 17 17 16 15 14 15 15 14 13 14 15 16 14 14 15 15 15
23 22 21 23 21 21 20 19 18 17 15 14 13 13 13 16 14 14 14 14 15 15 15 15 14 14 15 14 14 12 11 11 12 12 13 12 12 13 14 14 14 14 14
22 22 21 20 20 19 18 18 16 15 14 14 13 12 12 14 13 12 12 11 12 13 14 13 13 12 12 12 12 11 9 9 9 9 10 10 12 12 13 12 12 12 13
20 19 19 18 18 16 16 16 14 14 12 12 12 11 11 10 10 10 9 10 11 11 12 12 10 9 9 9 10 10 8 7 7 7 9 10 11 12 12 12 10 11 10
18 17 17 16 15 15 14 13 12 10 11 10 10 10 9 8 8 7 8 9 9 9 9 8 8 8 8 7 9 9 7 6 7 6 4 8 10 10 11 11 11 8 10
15 14 13 13 13 12 12 11 10 10 9 9 8 8 8 8 7 7 7 7 6 7 6 6 7 6 4 3 3 4 2 1 2 -1 6 5 5 4 7 9 7 10 7
13 12 12 12 11 11 10 9 9 8 7 7 7 6 6 6 5 6 5 5 5 5 5 5 5 3 2 5 3 1 0 0 2 -3 4 8 7 8 8 7 2 9 8

GFSGL_sfc_temp_102.txt.gz
Temp
62 63 68 70 71 70 70 69 68 67 64 63 63 64 59 58 57 57 57 57 56 56 56 55 55 57 57 59 59 60 59 59 56 65 69 69 73 70 69 71 69 65 69
61 62 67 69 70 69 69 68 67 66 65 63 62 65 62 62 61 60 58 59 57 57 57 57 59 64 61 63 61 60 60 65 62 60 63 66 71 72 71 71 69 68 64
60 61 64 65 68 69 69 69 68 66 66 65 65 63 62 63 63 62 61 62 61 61 61 61 64 62 59 59 58 58 60 65 63 58 64 69 68 69 69 71 70 70 65
60 62 62 63 67 68 68 67 67 67 65 65 65 65 64 64 64 64 63 61 64 65 64 64 60 59 59 58 59 59 57 56 57 57 57 61 64 70 71 69 66 71 70
59 61 61 63 64 65 64 65 66 66 66 66 65 66 65 64 64 63 62 62 62 61 62 62 63 62 55 59 65 62 57 55 56 58 57 57 58 61 65 69 67 69 71
51 52 59 61 60 60 63 62 62 64 65 65 65 65 65 66 51 48 57 63 63 63 63 62 62 55 55 47 47 49 59 60 59 58 56 56 60 65 69 68 67 64 61
46 47 48 50 52 52 57 58 61 62 64 63 64 65 64 59 38 42 45 65 65 64 64 64 63 66 58 67 49 43 44 44 46 64 62 63 62 63 60 63 63 62 60
41 43 44 46 46 47 48 48 49 51 49 52 50 56 46 40 37 37 38 50 55 58 61 56 53 56 51 50 58 59 57 55 51 52 53 51 41 38 39 43 44 44 45
39 40 41 42 42 42 42 43 45 44 41 39 39 41 39 38 36 37 40 49 50 52 40 37 39 42 37 37 45 48 47 37 36 35 34 33 32 32 32 39 41 40 41
38 38 41 41 41 41 42 41 41 40 38 37 35 35 34 35 35 36 41 46 45 36 34 33 33 35 34 35 40 41 41 36 32 31 29 29 28 28 28 29 30 34 35
40 39 40 42 41 41 42 42 40 38 36 34 33 33 33 33 33 35 36 38 34 31 30 30 31 33 33 33 33 33 34 32 29 29 27 28 26 26 27 28 27 29 27
40 39 39 39 41 41 41 40 41 39 36 34 33 32 33 34 33 33 33 33 33 30 28 29 30 31 31 31 30 30 30 30 28 26 26 25 25 25 26 26 27 28 28
37 38 37 38 39 39 39 39 39 40 39 37 36 35 34 35 34 32 32 32 32 31 31 31 31 32 32 31 31 31 31 30 28 26 25 25 27 29 30 30 31 30 29
37 36 34 33 35 37 37 36 35 36 35 35 34 33 33 33 34 35 34 34 32 32 32 32 31 31 31 31 32 32 32 32 31 30 29 30 31 31 30 31 31 31 31
36 36 35 34 33 31 30 31 31 31 33 32 32 32 31 30 30 31 32 32 32 32 32 33 32 32 31 30 30 30 31 31 30 30 30 30 31 31 30 32 32 32 29
34 34 34 34 35 35 33 28 29 29 30 31 31 31 30 30 30 30 30 30 32 32 32 30 29 30 29 29 29 28 29 29 30 30 30 30 29 29 30 31 31 30 28
32 33 34 33 33 32 32 30 26 26 27 28 29 29 29 29 29 29 30 30 32 33 30 29 28 28 29 29 29 28 26 27 28 29 29 28 28 28 28 27 28 28 26
29 28 30 29 30 29 29 29 29 28 26 24 24 26 26 26 27 29 31 33 30 30 28 27 26 27 28 27 27 27 26 26 26 26 26 25 26 26 25 25 25 24 26
30 29 29 29 29 29 29 28 28 27 26 26 27 26 26 25 26 26 28 27 26 26 26 26 26 26 26 26 24 24 23 21 23 23 23 23 23 24 23 23 22 19 22
28 27 28 29 28 28 28 27 26 26 25 23 22 22 26 27 24 23 24 24 24 25 25 24 24 24 24 23 23 23 23 22 22 22 21 21 22 23 22 21 21 22 22
29 28 27 28 27 27 27 26 25 25 24 22 19 19 19 24 22 22 22 22 22 23 22 23 22 21 22 21 22 21 20 20 19 20 21 21 19 21 21 21 21 21 20
28 27 27 26 26 25 25 25 24 23 23 22 21 19 19 21 21 20 20 19 19 21 21 21 20 19 18 19 19 19 17 16 17 18 18 18 20 20 20 20 20 20 20
26 26 25 25 24 23 23 23 22 22 21 20 20 19 19 18 18 18 17 17 18 17 18 18 17 16 17 16 17 16 15 14 14 13 15 17 19 19 19 19 18 18 16
24 24 24 23 23 23 22 20 18 17 19 19 18 18 17 16 16 15 15 15 16 15 15 14 13 11 13 14 16 16 14 11 13 14 11 14 16 16 17 17 17 14 16
23 22 21 21 21 20 20 19 19 18 18 18 17 17 16 15 15 15 14 13 12 13 12 13 12 12 10 8 8 8 6 5 7 4 13 12 12 11 12 15 13 16 14
20 20 20 20 19 19 19 18 17 17 16 15 15 15 15 14 14 14 12 11 11 11 10 12 11 8 9 10 9 6 4 4 6 3 7 13 12 14 14 13 11 14 15

GFSGL_sfc_temp_105.txt.gz
Temp
64 64 69 71 75 75 73 73 69 67 68 67 67 62 60 59 60 60 61 60 58 58 58 57 57 57 56 56 57 57 56 57 55 61 64 64 63 65 70 72 70 71 70
62 63 68 70 72 72 72 71 69 65 68 68 68 63 63 62 60 58 56 57 56 55 56 56 56 56 56 56 56 56 56 57 55 55 61 63 65 69 63 65 69 73 73
61 63 66 67 69 71 72 69 66 67 66 68 68 65 64 64 62 60 59 59 59 60 59 57 57 56 55 58 59 60 61 61 61 57 58 63 67 70 67 66 66 65 67
61 62 62 63 66 70 73 67 65 65 66 65 66 65 63 64 64 64 64 63 63 64 63 62 61 61 60 62 63 63 63 62 58 57 59 63 65 69 66 63 64 69 68
59 60 59 62 65 69 69 66 65 65 64 65 64 64 64 63 65 64 64 62 63 64 63 64 64 63 55 59 65 64 64 62 59 59 59 57 58 60 63 65 61 66 69
49 49 57 61 63 63 63 63 63 63 65 64 64 64 65 66 40 45 55 65 65 64 64 65 67 54 53 47 47 47 55 64 61 58 58 58 59 62 65 63 63 62 59
43 45 47 50 51 51 58 61 61 61 63 63 63 63 53 45 38 39 40 62 62 63 63 61 62 66 53 62 49 44 45 45 42 58 57 57 56 53 47 50 51 51 50
40 41 43 45 45 46 47 48 48 47 45 46 45 46 43 40 36 37 37 56 57 53 44 44 46 46 39 42 48 51 47 40 40 45 44 38 35 35 38 42 43 43 44
36 37 40 41 42 42 41 41 42 40 38 38 38 38 38 36 36 36 40 49 48 39 37 36 39 37 35 37 44 45 36 33 34 34 33 33 32 32 32 38 35 35 36
33 36 39 40 40 40 40 38 37 36 35 35 34 34 34 33 35 36 43 46 36 33 33 33 33 34 33 34 39 40 38 32 30 30 29 29 29 29 29 29 30 33 33
37 37 39 40 40 40 40 38 36 34 33 32 32 32 32 33 33 34 35 35 33 31 30 30 31 32 32 33 32 32 31 31 29 28 28 29 27 27 27 28 29 29 28
35 37 38 38 40 41 40 40 40 39 36 35 34 34 34 34 33 34 34 33 33 30 29 30 31 33 32 32 31 31 31 31 29 28 27 26 26 26 28 29 29 29 29
36 36 36 35 39 39 37 37 38 39 38 36 35 35 34 35 33 33 32 32 32 31 32 32 33 33 33 32 32 33 33 32 31 29 28 29 30 31 32 32 31 31 31
37 35 35 31 31 32 34 33 31 34 35 35 34 33 32 32 33 34 34 34 33 32 32 32 32 32 32 32 33 32 32 32 32 31 30 31 32 32 32 34 33 34 33
38 37 36 35 33 31 28 29 30 29 30 31 29 30 30 28 29 31 33 32 33 33 33 33 33 32 31 31 31 31 32 32 31 31 31 31 32 33 32 35 35 34 32
35 35 34 35 35 34 32 28 29 29 30 30 31 30 29 30 31 32 33 33 34 34 33 31 30 30 29 29 29 29 30 30 31 32 32 32 31 31 31 33 33 32 30
32 33 34 34 34 33 33 31 26 27 28 28 29 29 29 30 31 32 32 32 33 33 30 29 28 29 29 30 30 30 28 29 30 30 30 29 30 30 29 29 29 29 28
30 30 31 31 31 31 31 30 31 28 26 24 26 27 28 29 30 31 33 33 30 31 29 28 27 28 29 28 28 28 28 28 28 28 27 27 27 27 27 26 26 25 27
30 30 30 30 30 30 31 30 30 29 27 27 28 28 28 28 28 29 30 29 28 28 29 28 28 28 28 28 27 26 25 24 25 25 25 25 25 26 24 25 25 21 23
30 28 29 30 30 30 30 29 29 27 26 24 23 24 28 28 25 25 26 26 27 27 27 27 26 26 26 26 25 25 25 24 24 25 23 23 24 25 24 23 22 22 24
30 30 29 29 29 28 27 27 27 26 24 22 20 22 24 25 24 24 24 24 25 25 24 25 24 23 24 24 24 23 22 22 21 22 21 22 21 22 23 23 23 23 22
29 29 29 28 28 27 26 26 26 25 24 23 22 22 23 24 24 23 22 21 22 23 23 23 22 21 20 20 21 21 19 18 18 19 20 20 21 22 22 22 21 21 22
28 28 28 27 26 26 24 24 24 24 23 24 24 23 22 22 21 21 20 20 20 19 19 20 18 18 19 19 19 18 16 16 16 15 15 18 20 18 20 20 19 18 18
26 26 26 24 24 24 23 23 22 21 23 23 22 21 20 20 19 18 17 18 18 17 17 17 15 12 13 15 16 16 12 10 13 15 14 15 17 18 18 18 19 18 17
25 25 24 24 23 23 23 23 22 22 21 21 20 20 20 19 18 18 17 16 15 16 15 15 13 14 12 11 11 9 6 6 8 6 12 15 15 13 15 15 15 15 17
23 23 22 22 22 22 21 21 20 20 19 19 18 18 18 17 17 16 15 14 13 14 14 14 13 12 12 15 9 7 6 5 6 5 6 13 14 15 15 14 15 14 15

GFSGL_sfc_temp_108.txt.gz
Temp
71 69 69 70 70 69 69 68 67 64 64 63 63 63 61 61 60 59 58 58 57 57 57 58 57 58 57 57 57 57 55 55 54 56 59 61 61 60 63 61 64 64 62
67 65 65 66 67 66 66 67 64 63 64 64 63 61 61 60 60 59 58 58 57 57 57 57 57 57 57 57 56 56 56 56 55 54 59 59 58 61 61 61 64 65 63
62 62 63 64 64 65 66 66 64 63 63 64 63 62 61 60 59 58 58 57 58 57 57 56 57 56 55 56 56 56 56 57 55 55 56 58 59 59 60 60 58 58 62
60 60 60 61 63 63 65 64 62 63 62 63 63 63 62 61 61 60 59 57 57 57 58 58 57 56 56 55 55 56 56 55 55 55 55 57 56 58 59 58 56 58 60
53 57 59 60 62 63 63 62 61 61 62 62 61 61 61 61 58 60 60 59 59 58 59 60 59 57 52 54 59 57 57 57 56 55 54 53 54 55 55 59 58 60 60
44 44 48 54 58 59 61 61 60 60 61 61 61 60 59 50 39 40 50 59 59 59 58 58 60 51 52 46 47 48 55 58 56 55 53 53 54 57 56 55 56 55 50
40 42 43 45 47 50 55 57 56 55 59 57 57 49 45 42 37 39 39 58 56 53 50 52 56 51 47 55 45 43 43 39 37 50 52 53 51 45 46 48 49 48 47
38 39 41 42 42 43 45 44 43 43 43 43 44 44 41 38 37 37 38 54 45 42 40 43 44 41 38 42 48 42 37 35 37 39 37 34 33 34 37 41 42 41 40
35 36 38 39 39 38 37 38 38 37 36 35 36 36 36 35 36 37 43 45 39 36 35 36 37 36 35 38 44 38 33 31 34 34 33 33 33 32 33 38 34 35 34
33 34 36 37 37 36 34 34 36 36 35 35 33 34 34 33 35 37 41 38 33 32 32 33 33 33 34 35 39 37 31 30 30 29 28 29 30 30 30 29 30 33 32
34 33 34 35 36 36 35 34 36 34 33 32 32 32 32 32 33 35 36 34 32 31 30 30 32 33 33 33 33 32 30 30 28 28 28 28 28 28 28 29 28 28 28
34 33 32 33 34 33 33 35 36 35 33 33 33 32 31 31 32 33 33 33 32 31 29 30 31 33 33 32 31 32 31 30 29 28 28 27 27 28 29 29 28 26 26
33 32 31 30 31 32 31 31 33 35 34 33 32 31 30 32 31 32 33 33 32 31 31 32 33 33 33 32 32 32 33 32 30 29 27 27 28 30 30 29 23 22 22
36 33 32 29 28 29 30 29 28 29 30 29 30 28 28 29 30 32 32 32 33 31 31 32 31 31 32 31 31 31 31 31 30 28 28 28 29 29 25 26 26 25 23
35 35 34 32 29 27 27 27 28 28 29 27 27 27 26 26 29 31 31 31 31 31 32 32 30 29 28 28 28 29 29 30 28 29 28 28 25 23 22 25 25 24 21
32 32 31 32 32 30 27 25 29 29 30 30 30 29 29 31 32 33 34 34 34 33 30 28 27 27 26 26 25 23 24 24 25 25 23 23 23 23 25 26 26 23 21
30 30 31 31 31 30 29 27 22 25 29 29 30 30 31 31 33 33 33 33 33 31 26 25 25 25 24 25 24 23 21 22 25 24 23 22 23 24 22 23 23 23 21
30 30 30 30 29 29 29 28 28 25 23 22 28 28 30 30 31 32 33 31 26 27 25 24 23 23 23 23 22 21 21 22 20 21 19 18 17 19 18 19 19 14 18
29 29 30 29 29 29 28 28 27 26 24 24 25 26 27 29 29 30 30 25 23 22 23 23 22 22 22 22 20 17 15 14 14 15 16 16 13 16 14 17 17 13 15
29 28 29 29 28 28 28 27 26 24 22 20 20 20 25 25 22 21 22 22 21 21 21 21 21 20 19 18 16 17 15 15 15 16 11 10 14 12 12 12 11 10 14
28 28 27 28 27 27 26 25 25 23 20 19 18 20 22 21 19 19 19 18 18 18 18 18 16 16 17 18 17 14 14 12 14 13 11 12 9 9 13 11 12 14 14
27 27 27 25 25 24 24 25 24 23 22 20 19 19 18 19 18 17 16 16 16 17 17 16 15 14 14 14 14 13 9 8 7 9 12 10 13 12 12 13 9 8 11
26 25 25 24 25 23 22 22 22 22 21 20 20 19 18 17 16 16 15 15 15 12 12 12 11 11 13 14 12 10 7 6 9 4 4 7 11 7 8 8 8 6 5
24 24 24 23 21 22 22 20 18 16 19 19 17 16 16 16 13 11 11 13 10 9 12 11 7 6 7 7 9 6 5 2 5 4 3 5 6 7 5 6 8 4 8
22 21 21 21 20 20 20 19 18 18 18 17 17 16 16 14 14 13 12 8 9 10 9 8 5 6 4 4 3 2 -2 -1 -4 -3 0 4 5 3 7 5 6 4 4
20 19 19 19 18 18 18 17 16 16 15 15 14 13 13 12 13 12 10 7 7 8 8 8 6 6 7 6 3 1 -1 -2 -5 -4 -5 3 6 6 2 -0 3 4 5

GFSGL_sfc_temp_111.txt.gz
Temp
62 66 66 66 66 63 66 67 65 63 61 61 60 61 60 61 60 59 59 59 58 58 59 59 59 59 58 57 56 56 55 55 53 55 58 59 60 59 62 61 60 60 60
59 59 61 62 63 63 64 63 63 60 60 59 59 59 60 61 60 59 57 58 57 56 57 57 57 58 57 58 57 57 57 56 55 54 55 55 56 59 59 58 60 63 62
57 58 59 59 61 62 62 62 62 61 59 59 59 60 59 60 59 59 58 57 57 57 57 57 57 56 56 56 57 57 57 56 55 55 54 56 58 57 57 58 58 59 60
48 51 55 59 60 62 62 61 60 61 59 60 61 60 59 59 59 59 58 58 58 58 58 58 58 57 57 56 56 56 56 55 54 54 54 55 56 57 57 56 54 57 57
44 45 46 49 59 59 61 60 60 60 60 60 60 59 60 59 57 58 58 57 56 56 56 57 57 56 51 53 56 55 55 54 53 53 53 53 54 53 52 53 54 56 56
41 41 43 44 47 53 59 59 59 59 59 59 58 58 50 48 39 40 53 57 57 57 55 57 58 50 49 45 46 48 53 55 54 54 53 52 53 54 56 55 55 52 50
39 40 41 41 42 43 45 52 53 56 55 53 50 48 44 42 37 40 40 58 56 52 51 54 55 49 48 55 44 39 37 37 36 51 53 50 50 42 46 49 49 49 47
37 38 39 40 40 40 40 38 39 40 41 41 40 40 39 38 37 38 41 47 42 40 40 42 43 41 38 44 45 39 35 35 36 38 37 34 34 34 38 41 42 41 36
33 35 37 38 38 38 36 35 36 35 35 35 36 36 35 35 36 38 42 40 36 34 35 36 37 37 35 39 39 34 31 31 34 34 34 34 33 33 34 39 35 35 33
32 33 35 35 34 34 35 34 34 34 32 33 32 33 34 34 36 37 38 36 32 32 32 33 34 34 35 36 38 34 30 29 29 29 29 30 30 31 31 30 31 33 33
32 32 32 32 32 33 34 34 33 33 33 32 31 31 32 32 33 35 35 34 32 31 31 30 32 33 34 34 34 33 31 30 29 28 28 29 29 29 29 29 29 30 28
32 31 30 30 31 31 31 32 32 32 32 32 31 31 31 31 32 33 33 33 33 31 30 31 32 33 32 32 31 31 31 30 30 29 28 28 28 27 27 26 25 25 25
33 30 29 29 29 30 29 29 30 31 31 29 29 28 29 31 31 32 32 32 32 31 31 32 32 32 32 31 32 32 32 31 29 27 27 27 28 25 23 22 22 23 22
33 31 29 28 27 28 28 28 28 28 27 28 27 27 28 29 30 31 31 31 32 31 30 30 30 30 30 30 30 30 30 30 27 26 26 24 21 21 21 20 20 20 20
32 32 31 29 27 26 27 27 27 28 28 26 26 27 27 28 30 32 32 31 30 30 30 29 28 26 25 25 25 25 26 27 25 25 24 22 22 24 23 24 24 23 20
29 30 30 30 28 27 25 25 30 29 31 31 31 29 30 31 32 33 32 32 31 30 28 25 24 24 23 22 21 22 23 23 23 23 22 23 22 23 23 24 24 22 20
27 28 28 29 29 28 25 24 21 25 30 30 30 31 32 32 32 32 32 31 31 29 23 22 21 21 21 22 22 21 20 21 23 22 21 21 22 22 20 20 20 21 20
26 27 25 25 26 26 26 26 23 21 19 21 28 28 30 31 31 31 30 28 23 24 23 21 20 21 21 21 21 20 20 20 20 19 18 17 17 19 17 18 18 14 18
25 25 26 25 25 24 24 24 23 21 19 19 20 24 25 28 28 28 27 21 19 19 19 19 19 20 19 19 17 16 15 15 14 13 14 15 10 15 13 15 14 11 14
25 24 24 23 23 23 23 21 20 18 17 17 17 19 20 20 17 16 17 17 17 17 17 16 16 16 16 15 14 12 13 13 13 13 8 8 6 10 10 9 8 7 13
24 18 19 21 22 21 21 21 16 16 16 14 16 18 18 17 15 15 15 14 15 15 12 13 11 11 12 12 12 10 8 6 8 8 9 10 2 5 7 8 10 13 12
20 19 19 19 16 17 19 20 18 17 14 14 16 16 15 14 14 13 12 9 9 11 11 10 10 10 10 8 7 5 3 2 3 1 3 7 8 8 9 7 4 4 7
17 18 16 17 18 12 12 16 16 14 12 13 12 11 11 9 10 11 10 2 6 4 5 4 3 6 8 4 3 2 -1 -1 1 -6 -4 0 3 2 1 2 6 3 1
17 17 18 18 15 13 14 10 9 10 12 7 4 4 5 3 1 1 3 0 -0 -1 -1 -2 1 2 3 -2 -3 -2 0 -5 -2 -4 -8 -3 1 3 -1 1 1 -3 1
11 12 13 15 14 15 14 11 8 6 6 7 8 9 11 9 7 0 -3 -3 2 0 -2 -2 -3 1 -1 -3 -3 -3 -5 -6 -9 -8 -7 -3 1 1 2 1 -2 -1 -3
12 9 8 8 8 9 12 12 10 9 9 9 8 5 5 8 7 3 -2 -0 3 -0 4 -2 -0 3 1 -1 -2 -4 -6 -6 -9 -8 -11 -4 -7 -5 -6 -6 -4 -5 -1